Date,TemperatureHighF,TemperatureAvgF,TemperatureLowF,DewpointHighF,DewpointAvgF,DewpointLowF,HumidityHigh,HumidityAvg,HumidityLow,PressureMaxIn,PressureMinIn,WindSpeedMaxMPH,WindSpeedAvgMPH,GustSpeedMaxMPH,PrecipitationSumIn
2013-1-1,30,25,18,29,18,12,98,75,57,0.00,40.00,13,5,14,0.00
2013-1-2,24,15,7,18,12,3,93,84,74,0.00,40.00,10,5,13,0.00
2013-1-3,28,20,5,26,15,0,91,79,69,0.00,40.00,15,8,21,0.00
2013-1-4,26,22,15,22,17,12,94,82,69,0.00,40.00,20,12,27,0.00
2013-1-5,35,26,14,31,-2,-100,99,71,65,0.00,40.00,12,6,18,0.55
2013-1-6,35,32,27,33,28,-100,99,89,70,0.00,40.00,19,10,26,0.00
2013-1-7,35,28,21,29,25,20,97,85,68,0.00,40.00,15,7,22,0.00
2013-1-8,39,28,18,29,25,17,99,86,62,0.00,40.00,13,8,17,0.00
2013-1-9,46,38,24,35,30,23,99,75,56,0.00,40.00,17,13,25,0.00
2013-1-10,40,32,22,36,27,-100,99,87,72,0.00,40.00,13,9,17,3.89
2013-1-11,58,46,35,56,-56,-100,99,27,85,0.00,40.00,19,9,26,0.55
2013-1-12,60,52,44,54,-3,-100,99,58,78,0.00,40.00,14,10,20,6.77
2013-1-13,51,38,28,29,-98,-100,99,1,98,0.00,40.00,17,9,25,2.20
2013-1-14,28,22,18,27,19,17,96,86,75,0.00,40.00,19,10,25,0.00
2013-1-15,29,22,14,23,16,-100,100,85,68,0.00,40.00,13,2,13,0.00
2013-1-16,36,28,20,28,7,-100,100,66,46,0.00,40.00,17,10,27,0.00
2013-1-17,39,31,19,31,22,11,96,72,45,0.00,40.00,18,9,25,0.00
2013-1-18,37,28,20,22,18,14,82,66,48,0.00,40.00,21,14,29,0.00
2013-1-19,49,42,36,35,28,21,81,59,48,0.00,40.00,21,14,33,0.00
2013-1-20,42,24,18,35,12,6,78,61,41,0.00,40.00,34,15,43,0.00
2013-1-21,18,14,7,11,2,-5,79,59,41,0.00,40.00,21,13,30,2.79
2013-1-22,12,6,2,3,-2,-5,85,68,51,0.00,40.00,16,10,24,3.38
2013-1-23,17,12,6,15,3,-4,93,67,44,0.00,40.00,13,8,20,7.32
2013-1-24,21,14,6,15,4,-1,92,66,39,0.00,40.00,18,9,29,0.00
2013-1-25,23,19,16,22,14,3,96,80,55,0.00,40.00,13,9,16,6.13
2013-1-26,28,23,14,23,17,11,98,81,50,0.00,40.00,13,9,16,3.34
2013-1-27,32,24,14,28,4,-100,99,74,69,0.00,40.00,14,12,22,2.79
2013-1-28,48,42,31,-100,-100,-100,0,0,100,0.00,40.00,15,8,25,0.00
2013-1-29,57,52,40,-100,-100,-100,0,0,100,0.00,40.00,20,10,27,0.55
2013-1-30,60,48,30,53,-73,-100,99,19,84,0.00,40.00,25,13,39,9.52
2013-1-31,30,20,13,27,13,5,89,74,63,0.00,40.00,24,18,33,2.24
2013-2-1,14,11,6,8,4,1,82,74,65,0.00,40.00,20,14,27,0.00
2013-2-2,24,18,12,23,13,-100,100,89,78,0.00,40.00,13,9,17,10.66
2013-2-3,20,16,8,17,13,6,96,88,78,0.00,40.00,17,8,22,4.49
2013-2-4,24,20,16,24,-49,-100,100,41,85,0.00,40.00,12,4,16,11.21
2013-2-5,29,21,4,29,-38,-100,100,48,74,0.00,40.00,12,5,17,2.83
2013-2-6,33,26,18,29,15,-100,100,69,44,0.00,40.00,12,4,16,0.00
2013-2-7,38,30,20,32,19,-100,100,78,66,0.00,40.00,13,6,17,1.69
2013-2-8,33,29,19,29,-16,-100,99,56,65,0.00,40.00,20,9,26,1.69
2013-2-9,31,22,10,23,3,-100,100,74,65,0.00,40.00,11,4,14,0.00
2013-2-10,43,32,21,40,16,-100,99,80,71,0.00,40.00,16,7,20,2.24
2013-2-11,46,37,31,44,0,-100,93,58,67,0.00,40.00,32,19,44,0.00
2013-2-12,37,31,28,28,25,23,87,76,64,0.00,40.00,20,12,32,0.00
2013-2-13,42,32,25,31,26,23,96,81,53,0.00,40.00,13,8,13,0.00
2013-2-14,41,36,31,37,13,-100,99,74,68,0.00,40.00,18,13,34,0.00
2013-2-15,33,28,21,26,20,13,89,72,49,0.00,40.00,14,10,21,0.00
2013-2-16,24,20,12,21,15,6,96,81,57,0.00,40.00,17,9,25,5.07
2013-2-17,28,18,11,16,10,0,96,71,33,0.00,40.00,11,5,17,0.00
2013-2-18,53,35,20,43,26,13,97,70,49,0.00,40.00,19,11,29,1.10
2013-2-19,44,25,15,44,-18,-100,99,58,69,0.00,40.00,25,19,38,11.76
2013-2-20,23,19,15,19,15,11,91,83,74,0.00,40.00,17,13,25,16.79
2013-2-21,26,22,20,20,17,15,84,79,73,0.00,40.00,17,8,23,0.00
2013-2-22,34,27,20,21,-76,-100,99,18,82,0.00,40.00,20,9,29,9.56
2013-2-23,32,28,25,32,23,19,99,80,69,0.00,40.00,17,10,25,0.00
2013-2-24,36,29,24,26,23,19,92,78,62,0.00,40.00,15,7,19,0.00
2013-2-25,41,30,20,30,-13,-100,99,52,60,0.00,40.00,13,6,17,0.00
2013-2-26,32,30,29,30,-7,-100,94,64,84,0.00,40.00,21,13,28,6.18
2013-2-27,34,32,31,-100,-100,-100,0,0,100,0.00,40.00,14,10,22,5.03
2013-2-28,37,34,31,35,-44,-100,99,39,86,0.00,40.00,13,7,18,8.97
2013-3-1,32,28,25,30,0,-100,99,67,74,0.00,40.00,13,4,16,0.00
2013-3-2,28,26,22,21,19,17,85,77,65,0.00,40.00,11,6,16,0.00
2013-3-3,31,25,19,20,16,12,89,69,45,0.00,40.00,14,7,21,0.00
2013-3-4,35,26,15,24,18,14,98,74,43,0.00,40.00,13,7,13,0.00
2013-3-5,33,29,28,28,-1,-100,99,64,67,0.00,40.00,19,13,26,4.44
2013-3-6,35,30,25,29,14,-100,98,77,75,0.00,40.00,14,10,20,0.00
2013-3-7,37,33,30,33,15,-100,100,70,51,0.00,40.00,13,9,14,0.00
2013-3-8,42,31,20,27,22,19,99,72,43,0.00,40.00,13,11,13,0.00
2013-3-9,45,35,24,38,-2,-100,100,60,70,0.00,40.00,13,13,14,0.00
2013-3-10,56,50,42,46,41,37,83,72,63,0.00,40.00,14,13,21,0.00
2013-3-11,54,46,35,50,-26,-100,99,45,62,0.00,40.00,21,14,31,2.75
2013-3-12,36,33,30,35,18,-100,99,79,68,0.00,40.00,20,13,27,0.00
2013-3-13,30,27,24,30,18,-100,99,80,66,0.00,40.00,18,12,29,4.48
2013-3-14,41,30,20,24,19,13,86,64,33,0.00,40.00,13,11,13,0.00
2013-3-15,47,37,30,42,-21,-100,99,48,68,0.00,40.00,13,13,14,1.10
2013-3-16,40,33,31,32,-60,-100,100,28,87,0.00,40.00,16,13,22,0.00
2013-3-17,33,29,27,28,22,17,90,73,55,0.00,40.00,17,13,24,0.00
2013-3-18,35,31,27,27,-66,-100,97,23,81,0.00,40.00,19,12,25,4.49
2013-3-19,35,27,21,34,17,13,95,65,44,0.00,40.00,29,16,42,2.24
2013-3-20,29,24,17,16,11,4,77,57,39,0.00,40.00,16,13,25,0.00
2013-3-21,31,23,16,22,17,11,95,79,59,0.00,40.00,14,12,21,5.62
2013-3-22,41,31,20,20,17,15,90,59,35,0.00,40.00,13,13,15,0.00
2013-3-23,43,31,21,27,9,-100,100,64,40,0.00,40.00,13,13,13,0.00
2013-3-24,35,30,25,29,26,21,98,83,60,0.00,40.00,22,13,31,0.00
2013-3-25,37,32,28,33,-16,-100,99,54,69,0.00,40.00,14,10,22,11.80
2013-3-26,40,35,31,33,30,28,97,85,64,0.00,40.00,13,13,18,1.69
2013-3-27,44,36,30,33,15,-100,100,60,35,0.00,40.00,13,13,17,0.00
2013-3-28,51,38,27,24,21,18,78,53,28,0.00,40.00,13,13,16,0.00
2013-3-29,52,39,24,30,20,14,98,54,22,0.00,40.00,13,12,14,0.00
2013-3-30,56,41,24,32,24,19,92,56,26,0.00,40.00,13,12,16,0.00
2013-3-31,60,47,37,48,18,-100,98,54,31,0.00,40.00,20,13,32,0.00
2013-4-1,40,34,25,30,15,7,87,49,25,0.00,40.00,21,11,29,0.00
2013-4-2,42,31,20,22,12,3,87,51,20,0.00,40.00,19,8,27,0.00
2013-4-3,47,33,19,20,9,0,81,42,15,0.00,40.00,14,5,21,0.00
2013-4-4,57,39,24,22,14,8,73,40,15,0.00,40.00,10,4,17,0.00
2013-4-5,53,42,32,32,19,6,70,43,14,0.00,40.00,12,4,17,0.00
2013-4-6,61,46,32,32,23,15,71,43,24,0.00,40.00,24,12,31,0.00
2013-4-7,61,55,44,48,39,32,86,57,37,0.00,40.00,27,12,43,0.00
2013-4-8,71,52,39,62,37,-100,99,72,45,0.00,40.00,26,10,37,0.00
2013-4-9,79,60,44,65,26,-100,100,59,40,0.00,40.00,20,8,29,0.00
2013-4-10,68,48,43,65,-85,-100,99,9,84,0.00,40.00,18,8,25,3.89
2013-4-11,44,40,38,-100,-100,-100,0,0,100,0.00,40.00,24,15,42,10.12
2013-4-12,42,39,38,40,-31,-100,99,44,77,0.00,40.00,23,10,29,4.49
2013-4-13,41,39,36,38,20,-100,99,71,60,0.00,40.00,21,11,28,0.00
2013-4-14,56,44,36,47,32,-100,100,77,64,0.00,40.00,17,7,22,0.00
2013-4-15,69,55,37,58,16,-100,99,59,62,0.00,40.00,14,10,21,0.00
2013-4-16,61,52,46,57,-11,-100,97,44,48,0.00,40.00,15,9,26,0.00
2013-4-17,55,49,43,42,39,35,93,67,58,0.00,40.00,21,11,25,0.00
2013-4-18,76,58,43,69,-66,-100,99,18,71,0.00,40.00,19,13,34,13.51
2013-4-19,58,42,35,39,-12,-100,99,54,73,0.00,40.00,28,18,42,12.40
2013-4-20,42,36,31,33,20,-100,100,60,34,0.00,40.00,20,12,27,0.00
2013-4-21,51,38,25,33,27,17,98,66,37,0.00,40.00,13,11,19,0.00
2013-4-22,65,47,31,37,26,-100,99,56,24,0.00,40.00,13,8,16,0.00
2013-4-23,70,54,40,50,5,-100,93,51,38,0.00,40.00,19,9,34,7.87
2013-4-24,56,41,35,40,-57,-100,99,23,57,0.00,40.00,21,13,29,10.07
2013-4-25,51,42,35,40,33,26,96,72,39,0.00,40.00,21,14,35,0.55
2013-4-26,61,46,31,39,2,-100,99,43,33,0.00,40.00,13,13,13,0.00
2013-4-27,70,55,35,44,7,-100,99,36,23,0.00,40.00,14,11,19,0.00
2013-4-28,59,54,49,49,-59,-100,99,22,63,0.00,40.00,13,7,14,2.79
2013-4-29,71,60,53,59,-22,-100,98,38,58,0.00,40.00,13,6,13,0.00
2013-4-30,77,64,51,62,7,-100,98,47,55,0.00,40.00,17,13,24,0.00
2013-5-1,83,69,50,60,27,-100,99,48,34,0.00,40.00,13,8,17,0.00
2013-5-2,79,67,55,60,30,-100,99,52,36,0.00,40.00,15,6,21,0.00
2013-5-3,78,68,58,59,51,37,94,59,23,0.00,40.00,16,9,25,0.00
2013-5-4,70,62,53,47,42,34,77,49,27,0.00,40.00,17,10,25,0.00
2013-5-5,71,60,48,48,43,37,88,55,31,0.00,40.00,14,9,18,0.00
2013-5-6,74,63,53,49,43,39,70,50,29,0.00,40.00,13,2,16,0.00
2013-5-7,75,63,49,55,49,45,90,63,39,0.00,40.00,15,5,19,0.00
2013-5-8,80,65,52,60,22,-100,99,49,27,0.00,40.00,11,3,16,0.00
2013-5-9,81,66,51,61,0,-100,99,34,21,0.00,40.00,19,4,25,0.00
2013-5-10,70,61,47,64,-5,-100,99,52,68,0.00,40.00,18,10,24,4.52
2013-5-11,55,48,40,51,38,-100,99,83,60,0.00,40.00,23,9,34,0.00
2013-5-12,50,42,37,36,28,-100,94,63,37,0.00,40.00,21,11,32,0.00
2013-5-13,58,45,32,37,26,17,97,54,21,0.00,40.00,14,4,24,0.00
2013-5-14,83,64,44,57,41,30,77,46,29,0.00,40.00,21,8,29,0.00
2013-5-15,84,75,64,59,52,40,64,46,21,0.00,40.00,20,12,30,0.00
2013-5-16,84,64,51,53,25,-100,97,47,17,0.00,40.00,8,2,19,0.00
2013-5-17,81,65,51,49,36,-100,62,43,27,0.00,40.00,19,9,24,0.00
2013-5-18,80,67,54,54,47,36,71,49,37,0.00,40.00,13,6,17,0.00
2013-5-19,88,72,54,62,55,45,86,58,34,0.00,40.00,11,5,17,0.00
2013-5-20,90,78,66,72,53,-100,99,61,39,0.00,40.00,20,9,27,0.00
2013-5-21,88,77,68,69,61,53,96,60,31,0.00,40.00,19,9,27,0.00
2013-5-22,82,70,63,69,34,-100,100,63,42,0.00,40.00,24,9,34,0.00
2013-5-23,65,58,48,64,-16,-100,99,51,86,0.00,40.00,16,8,28,1.10
2013-5-24,64,51,39,47,38,33,98,65,32,0.00,40.00,15,6,19,0.00
2013-5-25,69,54,38,46,13,-100,99,43,21,0.00,40.00,7,2,12,0.00
2013-5-26,69,58,42,45,35,23,95,48,17,0.00,40.00,12,4,15,0.00
2013-5-27,60,55,51,55,-38,-100,99,24,28,0.00,40.00,14,8,21,7.78
2013-5-28,80,69,55,71,-6,-100,99,45,70,0.00,40.00,19,9,29,0.00
2013-5-29,85,76,65,69,65,61,98,71,47,0.00,40.00,19,11,29,0.00
2013-5-30,88,76,65,71,59,-100,99,71,46,0.00,40.00,24,11,35,0.00
2013-5-31,77,72,67,72,47,-100,98,80,73,0.00,40.00,15,8,22,7.32
2013-6-1,75,69,62,69,-14,-100,98,42,71,0.00,40.00,17,8,25,3.38
2013-6-2,70,64,50,69,46,-100,99,76,68,0.00,40.00,16,10,22,0.00
2013-6-3,69,58,47,49,42,36,91,60,31,0.00,40.00,13,5,13,0.00
2013-6-4,73,61,47,51,45,-100,100,62,32,0.00,40.00,9,3,15,0.00
2013-6-5,76,64,53,53,47,32,89,57,27,0.00,40.00,13,6,17,0.00
2013-6-6,74,63,56,55,49,43,79,62,45,0.00,40.00,9,4,16,0.00
2013-6-7,70,60,52,56,20,-100,99,58,55,0.00,40.00,7,3,14,0.00
2013-6-8,76,64,48,59,5,-100,99,39,37,0.00,40.00,7,2,12,0.00
2013-6-9,84,71,59,67,59,51,97,69,32,0.00,40.00,17,6,25,2.24
2013-6-10,77,69,66,70,-25,-100,98,38,65,0.00,40.00,14,7,20,2.75
2013-6-11,84,72,63,68,3,-100,100,42,51,0.00,40.00,12,7,20,0.00
2013-6-12,87,76,65,76,18,-100,99,52,62,0.00,40.00,17,4,24,7.33
2013-6-13,78,70,64,63,0,-100,95,38,35,0.00,40.00,17,9,31,2.83
2013-6-14,79,68,58,60,28,-100,99,53,35,0.00,40.00,9,4,13,0.00
2013-6-15,79,66,57,68,18,-100,99,59,52,0.00,40.00,11,4,17,0.00
2013-6-16,82,72,64,68,10,-100,100,50,59,0.00,40.00,14,8,22,0.00
2013-6-17,86,75,65,72,2,-100,99,34,28,0.00,40.00,11,4,15,0.00
2013-6-18,77,69,62,65,46,-100,99,66,55,0.00,40.00,13,4,17,0.00
2013-6-19,77,65,50,58,48,44,82,56,31,0.00,40.00,9,3,15,0.00
2013-6-20,82,66,51,57,31,-100,99,54,37,0.00,40.00,7,2,12,0.00
2013-6-22,91,83,74,78,71,67,83,67,56,0.00,40.00,14,7,26,0.00
2013-6-23,90,78,65,72,27,-100,98,49,41,0.00,40.00,23,6,32,0.00
2013-6-24,88,76,66,72,28,-100,99,55,45,0.00,40.00,12,6,19,0.00
2013-6-25,91,77,66,75,52,-100,100,70,47,0.00,40.00,20,9,30,1.10
2013-6-26,85,70,66,76,-73,-100,99,12,73,0.00,40.00,12,5,21,2.20
2013-6-27,84,74,68,74,-10,-100,97,42,63,0.00,40.00,13,4,21,0.00
2013-6-28,80,71,65,70,-11,-100,98,38,53,0.00,40.00,17,6,23,0.00
2013-6-29,76,67,60,70,-32,-100,99,33,64,0.00,40.00,13,6,18,3.94
2013-6-30,76,67,62,65,3,-100,98,48,57,0.00,40.00,13,5,22,0.00
2013-7-1,72,64,60,63,58,54,93,80,61,0.00,40.00,14,8,22,0.00
2013-7-2,71,65,59,68,-10,-100,99,49,78,0.00,40.00,12,5,17,0.55
2013-7-3,82,71,64,71,-26,-100,99,33,60,0.00,40.00,13,7,17,0.55
2013-7-4,80,72,63,70,20,-100,100,49,50,0.00,40.00,13,8,13,0.00
2013-7-5,82,74,67,71,-13,-100,99,40,62,0.00,40.00,13,10,14,0.00
2013-7-6,77,72,65,74,-53,-100,99,25,84,0.00,40.00,13,11,14,3.34
2013-7-7,80,70,66,74,-57,-100,99,23,80,0.00,40.00,16,6,22,3.34
2013-7-8,82,72,66,76,-44,-100,99,27,72,0.00,40.00,15,5,21,1.69
2013-7-9,86,77,72,79,-52,-100,99,24,75,0.00,40.00,13,5,14,2.24
2013-7-10,85,74,63,79,20,-100,99,58,62,0.00,40.00,21,9,32,0.00
2013-7-11,80,69,60,65,60,54,99,74,42,0.00,40.00,13,10,14,0.00
2013-7-12,79,68,58,64,35,-100,99,61,45,0.00,40.00,13,6,15,0.00
2013-7-13,83,73,58,69,42,-100,99,63,55,0.00,40.00,13,8,15,0.00
2013-7-14,87,76,65,74,20,-100,99,52,60,0.00,40.00,13,6,15,0.00
2013-7-15,91,79,70,78,0,-100,98,43,56,0.00,40.00,8,2,14,0.00
2013-7-16,91,81,71,78,19,-100,99,49,51,0.00,40.00,7,3,13,0.00
2013-7-17,91,81,72,76,23,-100,99,53,54,0.00,40.00,9,4,14,0.00
2013-7-18,92,82,71,79,4,-100,99,41,52,0.00,40.00,13,4,17,0.00
2013-7-19,92,83,75,76,58,-100,99,68,56,0.00,40.00,19,9,25,0.00
2013-7-20,86,79,71,76,42,-100,99,60,45,0.00,40.00,18,6,28,0.55
2013-7-21,85,74,64,72,21,-100,99,54,49,0.00,40.00,9,3,12,0.00
2013-7-22,81,71,65,73,4,-100,99,51,63,0.00,40.00,13,4,18,1.65
2013-7-23,83,72,61,73,1,-100,97,44,60,0.00,40.00,19,7,27,0.00
2013-7-24,73,62,52,60,53,50,97,73,50,0.00,40.00,7,4,17,0.00
2013-7-25,77,63,51,62,-12,-100,99,36,40,0.00,40.00,4,1,9,0.00
2013-7-26,78,67,55,65,35,-100,99,64,54,0.00,40.00,11,4,16,0.00
2013-7-27,78,67,55,69,8,-100,99,52,50,0.00,40.00,18,8,29,0.55
2013-7-28,68,58,49,55,11,-100,99,54,52,0.00,40.00,19,8,26,0.00
2013-7-29,73,58,49,61,-10,-100,100,47,53,0.00,40.00,12,4,17,0.00
2013-7-30,80,64,51,65,-14,-100,94,36,51,0.00,40.00,6,2,11,0.00
2013-7-31,76,69,65,70,21,-100,99,68,79,0.00,40.00,9,4,15,0.00
2013-8-1,79,70,58,67,-7,-100,99,36,41,0.00,40.00,15,7,23,0.00
2013-8-2,75,63,53,71,-26,-100,99,42,78,0.00,40.00,15,4,21,0.55
2013-8-3,79,71,59,71,4,-100,95,39,43,0.00,40.00,13,8,16,0.55
2013-8-4,76,65,53,59,32,-100,99,59,42,0.00,40.00,13,11,14,0.00
2013-8-5,75,63,50,64,8,-100,99,52,47,0.00,40.00,8,2,12,0.00
2013-8-6,79,70,63,71,5,-100,99,53,75,0.00,40.00,10,4,14,1.69
2013-8-7,81,72,65,76,-30,-100,99,36,79,0.00,40.00,13,8,13,0.00
2013-8-8,75,71,67,70,-2,-100,98,51,81,0.00,40.00,13,13,13,0.00
2013-8-9,81,72,65,67,45,-100,99,66,46,0.00,40.00,13,10,13,0.00
2013-8-10,82,72,64,68,33,-100,99,62,60,0.00,40.00,13,10,13,0.00
2013-8-11,80,69,56,67,3,-100,99,41,43,0.00,40.00,13,10,13,0.00
2013-8-12,84,70,59,69,-8,-100,99,40,51,0.00,40.00,13,5,28,0.55
2013-8-13,70,62,54,58,-4,-100,95,41,44,0.00,40.00,14,8,19,0.00
2013-8-14,70,59,46,54,42,-100,99,69,41,0.00,40.00,11,4,16,0.00
2013-8-15,76,54,46,58,-24,-100,98,32,33,0.00,40.00,8,2,14,0.00
2013-8-20,86,71,58,69,7,-100,99,44,45,0.00,40.00,10,3,14,0.00
2013-8-21,86,74,63,71,19,-100,99,53,49,0.00,40.00,11,4,18,0.00
2013-8-22,81,72,67,73,-39,-100,99,30,75,0.00,40.00,18,6,30,2.79
2013-8-23,83,72,59,65,-5,-100,97,30,32,0.00,40.00,7,4,13,0.00
2013-8-24,83,68,52,67,7,-100,99,37,32,0.00,40.00,9,3,16,0.00
2013-8-25,87,70,54,65,12,-100,98,42,39,0.00,40.00,11,4,19,0.00
2013-8-26,89,76,64,72,67,63,98,75,46,0.00,40.00,14,7,20,0.00
2013-8-27,89,76,71,76,-13,-100,99,41,63,0.00,40.00,10,5,14,3.39
2013-8-28,87,81,70,76,58,-100,98,70,64,0.00,40.00,9,5,14,0.00
2013-8-29,88,75,64,73,-3,-100,97,40,47,0.00,40.00,8,3,13,0.00
2013-8-30,89,79,63,73,31,-100,97,50,46,0.00,40.00,13,6,17,0.00
2013-8-31,86,78,72,75,22,-100,97,55,53,0.00,40.00,9,4,13,0.00
2013-9-1,82,72,67,73,-12,-100,99,43,71,0.00,40.00,10,4,14,0.00
2013-9-2,80,71,59,69,-14,-100,89,33,43,0.00,40.00,15,7,23,0.00
2013-9-3,77,65,56,56,53,49,94,66,40,0.00,40.00,10,5,20,0.00
2013-9-4,82,66,50,58,-2,-100,97,34,34,0.00,40.00,14,5,21,0.00
2013-9-5,78,65,54,61,23,-100,97,46,14,0.00,40.00,9,2,13,0.00
2013-9-7,85,72,56,65,58,48,82,63,40,0.00,40.00,13,5,17,0.00
2013-9-8,76,68,61,69,30,-100,99,65,67,0.00,40.00,12,4,16,0.00
2013-9-9,91,73,59,71,58,-100,99,72,45,0.00,40.00,14,5,21,0.00
2013-9-10,97,84,74,75,67,56,98,64,26,0.00,40.00,16,8,22,0.00
2013-9-11,95,82,70,71,45,-100,89,53,29,0.00,40.00,14,9,22,0.00
2013-9-12,82,70,59,70,-17,-100,97,37,32,0.00,40.00,11,6,17,1.69
2013-9-13,62,56,46,58,45,39,97,71,44,0.00,40.00,12,6,21,0.00
2013-9-22,64,53,44,53,15,-100,99,57,44,0.00,40.00,12,4,15,0.00
2013-9-23,64,51,40,51,-2,-100,99,47,48,0.00,40.00,11,3,16,0.00
2013-9-24,70,53,37,52,-4,-100,98,41,34,0.00,40.00,11,4,16,0.00
2013-9-25,72,57,46,55,-11,-100,99,41,46,0.00,40.00,9,2,12,0.00
2013-9-26,79,61,44,59,-10,-100,97,28,22,0.00,40.00,10,3,15,0.00
2013-9-27,78,58,43,61,-16,-100,99,32,34,0.00,40.00,12,4,17,0.00
2013-9-28,83,63,46,55,-18,-100,99,24,25,0.00,40.00,16,5,21,0.00
2013-9-29,64,58,54,61,-38,-100,99,37,70,0.00,40.00,11,4,12,2.83
2013-9-30,72,57,48,60,-42,-100,98,26,50,0.00,40.00,13,4,17,0.00
2013-10-1,66,62,52,63,13,-100,99,66,87,0.00,40.00,6,4,9,0.00
2013-10-2,82,71,62,66,-7,-100,99,33,41,0.00,40.00,13,4,13,0.00
2013-10-3,79,67,58,72,2,-100,99,55,70,0.00,40.00,13,7,15,1.69
2013-10-4,82,71,65,71,4,-100,99,54,65,0.00,40.00,13,6,14,0.55
2013-10-5,78,70,62,74,-48,-100,99,27,83,0.00,40.00,12,6,16,0.00
2013-10-6,70,62,52,54,-88,-100,94,7,83,0.00,40.00,17,9,25,5.62
2013-10-26,52,44,37,36,29,24,83,55,48,0.00,40.00,19,13,29,0.00
2013-10-27,55,42,30,38,8,-100,98,50,32,0.00,40.00,12,4,22,0.00
2013-10-28,57,41,28,40,31,-100,98,75,39,0.00,40.00,7,2,15,0.00
2013-10-29,55,44,33,43,37,31,96,80,54,0.00,40.00,9,4,14,0.00
2013-10-30,62,50,34,59,-12,-100,97,50,73,0.00,40.00,9,4,15,0.00
2013-10-31,63,61,58,-100,-100,-100,0,0,100,0.00,40.00,20,13,29,18.03
2013-11-1,59,49,46,51,25,-100,98,74,72,0.00,40.00,22,12,31,0.00
2013-11-29,37,29,20,26,19,13,91,68,37,0.00,40.00,13,9,13,0.00
2013-11-30,49,33,25,28,22,-100,91,70,40,0.00,40.00,13,8,14,0.00
2013-12-1,45,36,30,35,30,25,99,82,67,0.00,40.00,13,10,13,0.00
2013-12-2,40,31,23,35,-30,-100,99,47,73,0.00,40.00,13,13,14,0.00
2013-12-3,45,37,33,33,-86,-100,99,10,92,0.00,40.00,13,8,14,0.55
2013-12-4,57,48,38,-100,-100,-100,0,0,100,0.00,40.00,13,7,19,0.00
2013-12-5,58,39,29,54,2,-100,97,64,71,0.00,40.00,17,12,27,0.00
2013-12-8,25,21,13,24,-18,-100,99,61,78,0.00,40.00,15,9,21,5.62
2013-12-9,28,24,17,25,-24,-100,97,52,67,0.00,40.00,19,12,28,0.55
2013-12-10,24,16,5,10,6,0,84,65,43,0.00,40.00,24,12,33,0.00
2013-12-11,24,17,7,21,12,4,98,80,62,0.00,40.00,16,9,23,12.91
2013-12-12,19,11,0,8,2,-5,89,67,45,0.00,40.00,21,9,29,0.00
2013-12-13,32,22,13,21,13,5,78,67,49,0.00,40.00,13,10,18,2.24
2013-12-14,26,22,20,25,-74,-100,100,20,80,0.00,40.00,13,13,19,6.72